Location: El Mouella
(16.4949°N, 9.1594°W)
Time: 14:52:28
(UTC+00:00)

Milstar 3 Cent rocket - Pass Details

Date: 02 June 2020
Orbit: 706 x 5147 km, 28.3° (Epoch: 04 July)

Event Time Altitude Azimuth Distance (km) Brightness Sun altitude
Rises 21:28:27 0° 257° (WSW) 3,622 6.0 -30.1°
Reaches altitude 10° 21:30:29 10° 260° (W) 2,909 5.4 -30.5°
Maximum altitude 21:37:31 68° 343° (NNW) 1,726 3.7 -31.8°
Drops below altitude 10° 21:52:54 10° 65° (ENE) 5,963 6.3 -34.5°
Sets 21:59:16 0° 68° (ENE) 7,726 6.9 -35.6°
